Date String (YYYY-MM-DD hh:mm:ss) UTC,Instrument flags,absolute air pressure of the measurement (hPa),sample flow rate (lpm),inlet stack bypass flow (lpm),air temperature of the measurement (°C),ambient temperature measured by the external sensor (°C),aerosol sample conditioner tube jacket temperature (°C),OPC LED temperature (°C),internal box temperature (°C),relative humidity of the measurement (%),span deviation,mass concentration of particles derived from Lorenz-Mie calculation of OPC scattering (μg/m³),mass concentration of particles derived from Lorenz-Mie calculation of OPC scattering (μg/m³),mass concentration of particles derived from Lorenz-Mie calculation of OPC scattering (μg/m³)
DateTimeUTC,F1_M11,P_M11,Q1_M11,Q2_M11,T1_M11,T2_M11,T3_M11,T4_M11,T5_M11,U1_M11,ZSPAN_M11,X0_M11,X2_M11,X1_M11
2023-07-18 04:00:00,SystemResetWarning,0831.2,5.00,000.00,028.7,027.4,000.0,037.0,030.4,16.5,0000.0,0011.34,0003.79,0003.13
2023-07-18 04:01:00,SystemResetWarning,0831.3,5.00,000.00,028.8,027.6,000.0,037.1,030.5,16.4,0000.0,0011.58,0003.81,0003.13
2023-07-18 04:02:00,SystemResetWarning,0831.3,5.00,000.00,028.8,027.8,000.0,037.1,030.6,16.2,0000.0,0011.85,0003.81,0003.13
2023-07-18 04:03:00,SystemResetWarning,0831.2,4.98,000.00,028.9,026.9,000.0,037.0,030.5,15.7,0000.0,0011.84,0003.77,0003.12
2023-07-18 04:04:00,SystemResetWarning,0831.2,5.01,000.00,028.8,025.6,000.0,036.9,030.3,15.9,0000.0,0012.20,0003.75,0003.12
2023-07-18 04:05:00,SystemResetWarning,0831.2,5.01,000.00,028.8,025.7,000.0,036.9,030.2,16.6,0000.0,0012.25,0003.76,0003.12
2023-07-18 04:06:00,SystemResetWarning,0831.2,5.01,000.00,028.7,025.9,000.0,037.0,030.2,16.0,0000.0,0011.56,0003.74,0003.12
2023-07-18 04:07:00,SystemResetWarning,0831.3,4.99,000.00,028.7,026.3,000.0,037.0,030.2,16.1,0000.0,0011.67,0003.70,0003.12
2023-07-18 04:08:00,SystemResetWarning,0831.2,5.00,000.00,028.7,026.6,000.0,037.1,030.3,16.4,0000.0,0011.71,0003.66,0003.12
2023-07-18 04:09:00,SystemResetWarning,0831.2,5.00,000.00,028.8,027.0,000.0,037.1,030.4,16.5,0000.0,0012.01,0003.64,0003.13
2023-07-18 04:10:00,SystemResetWarning,0831.2,5.01,000.00,028.8,027.3,000.0,037.1,030.5,16.0,0000.0,0011.14,0003.61,0003.12
2023-07-18 04:11:00,SystemResetWarning,0831.3,4.98,000.00,028.9,027.5,000.0,037.2,030.6,15.9,0000.0,0010.55,0003.61,0003.13
2023-07-18 04:12:00,SystemResetWarning,0831.2,4.99,000.00,028.9,027.6,000.0,037.2,030.6,15.8,0000.0,0010.24,0003.59,0003.14
2023-07-18 04:13:00,SystemResetWarning,0831.2,5.00,000.00,028.9,026.0,000.0,037.1,030.5,15.8,0000.0,0010.28,0003.58,0003.15
2023-07-18 04:14:00,SystemResetWarning,0831.2,5.00,000.00,028.8,024.6,000.0,037.0,030.2,16.0,0000.0,0010.30,0003.58,0003.16
2023-07-18 04:15:00,SystemResetWarning,0831.2,5.02,000.00,028.8,024.7,000.0,036.9,030.1,15.9,0000.0,0009.91,0003.59,0003.17
2023-07-18 04:16:00,SystemResetWarning,0831.2,5.00,000.00,028.7,025.1,000.0,036.9,029.9,16.2,0000.0,0009.48,0003.58,0003.19
2023-07-18 04:17:00,SystemResetWarning,0831.3,5.00,000.00,028.6,025.5,000.0,037.0,030.0,16.7,0000.0,0009.45,0003.60,0003.19
2023-07-18 04:18:00,SystemResetWarning,0831.3,5.00,000.00,028.6,026.0,000.0,037.0,030.1,17.3,0000.0,0009.29,0003.59,0003.19
2023-07-18 04:19:00,SystemResetWarning,0831.3,5.00,000.00,028.7,026.4,000.0,037.0,030.2,17.5,0000.0,0009.01,0003.60,0003.19
2023-07-18 04:20:00,SystemResetWarning,0831.3,5.00,000.00,028.7,026.8,000.0,037.1,030.3,17.4,0000.0,0008.35,0003.64,0003.19
2023-07-18 04:21:00,SystemResetWarning,0831.3,5.00,000.00,028.7,027.1,000.0,037.1,030.4,17.5,0000.0,0008.22,0003.66,0003.20
2023-07-18 04:22:00,SystemResetWarning,0831.3,4.99,000.00,028.8,027.4,000.0,037.1,030.5,17.6,0000.0,0008.18,0003.65,0003.19
2023-07-18 04:23:00,SystemResetWarning,0831.3,5.00,000.00,028.8,027.6,000.0,037.1,030.6,17.6,0000.0,0008.28,0003.68,0003.18
2023-07-18 04:24:00,SystemResetWarning,0831.3,5.00,000.00,028.9,027.8,000.0,037.2,030.6,17.5,0000.0,0007.86,0003.68,0003.18
2023-07-18 04:25:00,SystemResetWarning,0831.3,4.98,000.00,028.9,026.6,000.0,037.1,030.6,17.6,0000.0,0007.69,0003.67,0003.17
2023-07-18 04:26:00,SystemResetWarning,0831.3,5.01,000.00,028.9,025.6,000.0,037.0,030.4,17.6,0000.0,0007.62,0003.65,0003.16
2023-07-18 04:27:00,SystemResetWarning,0831.3,5.01,000.00,028.8,025.7,000.0,037.0,030.3,17.5,0000.0,0007.85,0003.65,0003.16
2023-07-18 04:28:00,SystemResetWarning,0831.3,4.99,000.00,028.8,026.0,000.0,037.0,030.2,17.4,0000.0,0008.40,0003.67,0003.15
2023-07-18 04:29:00,SystemResetWarning,0831.4,5.00,000.00,028.8,026.3,000.0,037.1,030.3,17.3,0000.0,0009.17,0003.72,0003.16
2023-07-18 04:30:00,SystemResetWarning,0831.3,5.01,000.00,028.8,026.7,000.0,037.1,030.4,17.1,0000.0,0009.32,0003.72,0003.16
2023-07-18 04:31:00,SystemResetWarning,0831.3,5.01,000.00,028.8,027.0,000.0,037.1,030.5,16.9,0000.0,0009.55,0003.69,0003.16
2023-07-18 04:32:00,SystemResetWarning,0831.3,4.99,000.00,028.9,027.3,000.0,037.2,030.5,16.9,0000.0,0010.49,0003.69,0003.16
2023-07-18 04:33:00,SystemResetWarning,0831.3,5.00,000.00,028.9,027.6,000.0,037.2,030.6,16.7,0000.0,0010.66,0003.73,0003.16
2023-07-18 04:34:00,SystemResetWarning,0831.3,5.00,000.00,028.9,027.4,000.0,037.2,030.7,16.6,0000.0,0011.25,0003.74,0003.16
2023-07-18 04:35:00,SystemResetWarning,0831.3,5.00,000.00,028.9,025.7,000.0,037.1,030.4,16.5,0000.0,0011.75,0003.78,0003.17
2023-07-18 04:36:00,SystemResetWarning,0831.3,5.00,000.00,028.8,024.4,000.0,037.0,030.2,16.5,0000.0,0012.56,0003.83,0003.19
2023-07-18 04:37:00,SystemResetWarning,0831.3,5.01,000.00,028.7,024.6,000.0,036.9,030.0,16.6,0000.0,0013.14,0003.87,0003.19
2023-07-18 04:38:00,SystemResetWarning,0831.3,5.00,000.00,028.7,025.0,000.0,037.0,030.0,16.6,0000.0,0013.03,0003.88,0003.20
2023-07-18 04:39:00,SystemResetWarning,0831.3,4.99,000.00,028.6,025.5,000.0,037.0,030.0,16.6,0000.0,0012.57,0003.87,0003.21
2023-07-18 04:40:00,SystemResetWarning,0831.3,5.00,000.00,028.6,026.0,000.0,037.0,030.1,16.6,0000.0,0012.27,0003.85,0003.22
2023-07-18 04:41:00,SystemResetWarning,0831.3,5.01,000.00,028.7,026.4,000.0,037.1,030.2,16.6,0000.0,0012.67,0003.82,0003.22
2023-07-18 04:42:00,SystemResetWarning,0831.3,5.00,000.00,028.7,026.8,000.0,037.1,030.3,16.6,0000.0,0012.40,0003.81,0003.21
2023-07-18 04:43:00,SystemResetWarning,0831.3,5.00,000.00,028.7,027.1,000.0,037.1,030.4,16.6,0000.0,0011.32,0003.79,0003.22
2023-07-18 04:44:00,SystemResetWarning,0831.3,5.00,000.00,028.8,027.4,000.0,037.1,030.5,16.6,0000.0,0011.47,0003.75,0003.21
2023-07-18 04:45:00,SystemResetWarning,0831.3,4.99,000.00,028.8,027.6,000.0,037.2,030.6,16.6,0000.0,0011.39,0003.71,0003.21
2023-07-18 04:46:00,SystemResetWarning,0831.3,4.99,000.00,028.9,027.8,000.0,037.2,030.6,16.5,0000.0,0011.16,0003.69,0003.21
2023-07-18 04:47:00,SystemResetWarning,0831.3,4.99,000.00,028.9,027.9,000.0,037.2,030.7,16.1,0000.0,0011.16,0003.67,0003.20
2023-07-18 04:48:00,SystemResetWarning,0831.2,5.00,000.00,028.9,026.5,000.0,037.1,030.6,15.7,0000.0,0011.04,0003.64,0003.20
2023-07-18 04:49:00,SystemResetWarning,0831.2,5.00,000.00,028.9,025.6,000.0,037.0,030.4,15.5,0000.0,0011.10,0003.65,0003.21
2023-07-18 04:50:00,SystemResetWarning,0831.2,5.01,000.00,028.8,025.7,000.0,037.0,030.3,15.6,0000.0,0011.29,0003.64,0003.21
2023-07-18 04:51:00,SystemResetWarning,0831.2,5.01,000.00,028.8,026.0,000.0,037.1,030.2,16.1,0000.0,0011.83,0003.63,0003.20
2023-07-18 04:52:00,SystemResetWarning,0831.2,4.99,000.00,028.8,026.3,000.0,037.1,030.3,16.7,0000.0,0011.12,0003.63,0003.20
2023-07-18 04:53:00,SystemResetWarning,0831.2,5.00,000.00,028.8,026.7,000.0,037.2,030.4,16.2,0000.0,0011.19,0003.65,0003.21
2023-07-18 04:54:00,SystemResetWarning,0831.2,5.00,000.00,028.8,027.0,000.0,037.2,030.5,16.0,0000.0,0011.31,0003.67,0003.21
2023-07-18 04:55:00,SystemResetWarning,0831.2,5.01,000.00,028.9,027.3,000.0,037.2,030.6,15.9,0000.0,0011.25,0003.69,0003.22
2023-07-18 04:56:00,SystemResetWarning,0831.2,4.99,000.00,028.9,027.6,000.0,037.2,030.6,15.8,0000.0,0010.91,0003.72,0003.22
2023-07-18 04:57:00,SystemResetWarning,0831.1,4.99,000.00,029.0,027.4,000.0,037.2,030.7,15.7,0000.0,0010.92,0003.75,0003.22
2023-07-18 04:58:00,SystemResetWarning,0831.1,5.00,000.00,028.9,025.8,000.0,037.1,030.5,15.7,0000.0,0010.50,0003.77,0003.22
2023-07-18 04:59:00,SystemResetWarning,0831.1,5.01,000.00,028.9,025.5,000.0,037.1,030.3,15.8,0000.0,0009.78,0003.77,0003.23
